Powered by GoogleTranslate

Occupational Safety and Health Administration OSHA

Accident Search Results

Description, Abstract, KeywordSICNAICSDate RangeOfficeInsp Nr
Keyword: "Electrician"AllAllAllAllAll

By Date

Results 161 - 180 of 1647
Result Page: ... 4 5 6 7 8 9 10 11 12 13 ...
  # Summary Nr Event Date Report ID Fat SIC Event Description
161 202615100 09/05/2013 1054111   1731,1541,4911 Worker Is Burned In Arc Blast When Bolt Contacts Live Elect
162 202458287 08/27/2013 0950647 X 2099 Employee Dies From Electrocution In Amp Test
163 200075463 08/23/2013 0453720   4911 Lineman Is Shocked When Rod Contacts High Voltage Line
164 202556825 08/23/2013 0950631   1731 Worker Sustains Multiple Fractures In Fall From Ladder
165 170784524 08/15/2013 0950621   1731 Electrician Falls From Ladder And Fractures Both Heels
166 202691879 08/15/2013 0950624   1731 Electrician Is Injured By Electric Shock
167 201187077 08/12/2013 0950611   1731 Employee Is Injured In Fall From Ladder
168 201045036 08/07/2013 0953220 X 1731 Employeei Falls From H Frame, Later Dies
169 201129889 07/18/2013 0950613   1731 Worker'S Face Is Crushed Between Scissor Lift And Pipe
170 201615499 06/24/2013 1054113   1711 Worker Searching For Electrical Fault Is Shocked
171 200376507 06/21/2013 0454510   1623 Four Workers Sustain Cuts When Glass Meter Shatters
172 201024734 06/21/2013 0950615   1731 Electrician Falls From Ladder And Sustains Fracture
173 170834287 05/24/2013 0950615   2421 Employee Falls From Height And Fractures Hip
174 201498326 05/04/2013 0950625   1799 Electrician Burned And Knocked Unconscious In Arc Blast
175 202675062 04/30/2013 0950621   7389 Employee Burns Hands And Arm When Contacts Battery Rack
176 202673430 04/25/2013 0950633 X 4911 Employee Is Electrocuted
177 202637112 03/13/2013 0551800   3312 Three Employees Are Burned Due To Arc Flash/Heat
178 202657862 03/12/2013 0950643   1799 Worker'S Ankle Is Fractured When Aerial Lift Falls Into Pit
179 202654273 03/12/2013 0950612   1623 Apprentice Electrician Falls From Ladder And Fractures Ankle
180 202657656 03/09/2013 0950643   3812 Burn - Electrical Fault In Substation Cabinet Busbars

Thank You for Visiting Our Website

You are exiting the Department of Labor's Web server.

The Department of Labor does not endorse, takes no responsibility for, and exercises no control over the linked organization or its views, or contents, nor does it vouch for the accuracy or accessibility of the information contained on the destination server. The Department of Labor also cannot authorize the use of copyrighted materials contained in linked Web sites. Users must request such authorization from the sponsor of the linked Web site. Thank you for visiting our site. Please click the button below to continue.

Close